Orbital Elements at Epoch 2459200.5 (2020-Dec-17.0) TDB
Reference: JPL 34 (heliocentric ecliptic J2000)
Element | Value | Uncertainty (1-sigma) | Units |
e | .1806627687983287 | 1.7031e-08 | |
a | 2.760992323923696 | 1.1104e-08 | au |
q | 2.262183806052709 | 4.818e-08 | au |
i | 6.926481536666855 | 4.0657e-07 | deg |
node | 70.39487337454167 | 3.8595e-06 | deg |
peri | 346.2349836945995 | 6.8393e-06 | deg |
M | 199.0837544670496 | 8.1486e-06 | deg |
tp | 2459949.520348183356 (2023-Jan-05.02034818) | 4.0545e-05 | TDB |
period | 1675.699830386568 4.59 | 1.0109e-05 2.768e-08 | d yr |
n | .2148356128418009 | 1.296e-09 | deg/d |
Q | 3.259800841794683 | 1.311e-08 | au |
|
| | Orbit Determination Parameters
Additional Information
|